Time,TemperatureF,DewpointF,PressureIn,WindDirection,WindDirectionDegrees,WindSpeedMPH,WindSpeedGustMPH,Humidity,HourlyPrecipIn,Conditions,Clouds,dailyrainin,SoftwareType,DateUTC
2013-01-25 00:02:00,42.0,-99.9,-100.00,SSE,158,3.0,5.0,-999,-99.99,,,-99.99,,2013-01-25 08:02:00,
2013-01-25 01:02:00,42.0,-99.9,-100.00,North,0,0.0,3.0,-999,-99.99,,,-99.99,,2013-01-25 09:02:00,
2013-01-25 02:02:00,42.0,-99.9,-100.00,NNE,22,2.0,8.0,-999,-99.99,,,-99.99,,2013-01-25 10:02:00,
2013-01-25 03:03:00,42.0,-99.9,-100.00,NNE,22,3.0,3.0,-999,-99.99,,,-99.99,,2013-01-25 11:03:00,
2013-01-25 04:03:00,43.0,-99.9,-100.00,North,0,0.0,3.0,-999,-99.99,,,-99.99,,2013-01-25 12:03:00,
2013-01-25 05:03:00,44.0,-99.9,-100.00,South,180,7.0,8.0,-999,-99.99,,,-99.99,,2013-01-25 13:03:00,
2013-01-25 06:03:00,44.0,-99.9,-100.00,SSE,158,10.0,13.0,-999,-99.99,,,-99.99,,2013-01-25 14:03:00,
2013-01-25 07:03:00,44.0,-99.9,-100.00,SSE,158,12.0,14.0,-999,-99.99,,,-99.99,,2013-01-25 15:03:00,
2013-01-25 08:04:00,45.0,-99.9,-100.00,SE,135,12.0,13.0,-999,-99.99,,,-99.99,,2013-01-25 16:04:00,
2013-01-25 09:03:00,46.0,-99.9,-100.00,ESE,112,6.0,14.0,-999,-99.99,,,-99.99,,2013-01-25 17:03:00,
2013-01-25 10:04:00,46.0,-99.9,-100.00,North,360,1.0,12.0,-999,-99.99,,,-99.99,,2013-01-25 18:04:00,
2013-01-25 11:03:00,47.0,-99.9,-100.00,ESE,112,6.0,8.0,-999,-99.99,,,-99.99,,2013-01-25 19:03:00,
2013-01-25 12:03:00,47.0,-99.9,-100.00,SE,135,5.0,8.0,-999,-99.99,,,-99.99,,2013-01-25 20:03:00,
2013-01-25 13:02:00,48.0,-99.9,-100.00,ESE,112,5.0,7.0,-999,-99.99,,,-99.99,,2013-01-25 21:02:00,
2013-01-25 14:03:00,49.0,-99.9,-100.00,SE,135,3.0,6.0,-999,-99.99,,,-99.99,,2013-01-25 22:03:00,
2013-01-25 15:03:00,50.0,-99.9,-100.00,South,180,3.0,6.0,-999,-99.99,,,-99.99,,2013-01-25 23:03:00,
2013-01-25 16:03:00,51.0,-99.9,-100.00,North,360,2.0,3.0,-999,-99.99,,,-99.99,,2013-01-26 00:03:00,
2013-01-25 17:02:00,52.0,-99.9,-100.00,NE,45,3.0,3.0,-999,-99.99,,,-99.99,,2013-01-26 01:02:00,
2013-01-25 17:10:00,49.0,-99.9,-100.00,SSE,158,7.0,8.0,-999,-99.99,,,-99.99,,2013-01-26 01:10:00,
2013-01-25 18:02:00,49.0,-99.9,-100.00,SSE,158,7.0,8.0,-999,-99.99,,,-99.99,,2013-01-26 02:02:00,
2013-01-25 19:02:00,46.0,-99.9,-100.00,SSE,158,6.0,10.0,-999,-99.99,,,-99.99,,2013-01-26 03:02:00,
2013-01-25 20:02:00,46.0,-99.9,-100.00,SSE,158,10.0,12.0,-999,-99.99,,,-99.99,,2013-01-26 04:02:00,
2013-01-25 21:03:00,45.0,-99.9,-100.00,SE,135,7.0,15.0,-999,-99.99,,,-99.99,,2013-01-26 05:03:00,
2013-01-25 22:03:00,45.0,-99.9,-100.00,SSE,158,9.0,12.0,-999,-99.99,,,-99.99,,2013-01-26 06:03:00,
2013-01-25 23:02:00,44.0,-99.9,-100.00,ESE,112,8.0,12.0,-999,-99.99,,,-99.99,,2013-01-26 07:02:00,